This is the latest recevied weather packets stored in our database for station/object N9WHM. If no packets are shown the sender has not sent any weather packets the latest 10 day(s).
| Time | Temp. | Humidity | Pressure | Rain* | Wind** | Luminosity | Snow |
|---|---|---|---|---|---|---|---|
| 1778259929 | 22.78° C | 26% | 1007.7 hPa | 0 mm | - | 711 W/m² | - |
| 1778259626 | 22.78° C | 27% | 1007.8 hPa | 0 mm | - | 709 W/m² | - |
| 1778259323 | 22.78° C | 27% | 1007.8 hPa | 0 mm | - | 693 W/m² | - |
| 1778259020 | 22.78° C | 25% | 1008.1 hPa | 0 mm | - | 689 W/m² | - |
| 1778258716 | 22.78° C | 25% | 1008.1 hPa | 0 mm | - | 681 W/m² | - |
| 1778258413 | 22.78° C | 26% | 1008.1 hPa | 0 mm | - | 671 W/m² | - |
| 1778258111 | 22.78° C | 26% | 1008.3 hPa | 0 mm | - | 658 W/m² | - |
| 1778257807 | 23.33° C | 25% | 1008.1 hPa | 0 mm | - | 648 W/m² | - |
| 1778257504 | 21.67° C | 24% | 1008.2 hPa | 0 mm | - | 639 W/m² | - |
| 1778257201 | 22.78° C | 24% | 1008.3 hPa | 0 mm | - | 632 W/m² | - |
| 1778256898 | 22.78° C | 23% | 1008.6 hPa | 0 mm | - | 623 W/m² | - |
| 1778256595 | 21.67° C | 26% | 1008.3 hPa | 0 mm | - | 611 W/m² | - |
| 1778256294 | 21.67° C | 24% | 1008.3 hPa | 0 mm | - | 599 W/m² | - |
| 1778255990 | 22.78° C | 27% | 1008.4 hPa | 0 mm | - | 587 W/m² | - |
| 1778255687 | 21.67° C | 29% | 1008.6 hPa | 0 mm | - | 578 W/m² | - |
| 1778255384 | 21.11° C | 30% | 1008.4 hPa | 0 mm | - | 565 W/m² | - |
| 1778255082 | 20.56° C | 31% | 1008.5 hPa | 0 mm | - | 554 W/m² | - |
| 1778254778 | 20.56° C | 31% | 1008.6 hPa | 0 mm | - | 538 W/m² | - |
| 1778254475 | 20.56° C | 32% | 1008.4 hPa | 0 mm | - | 527 W/m² | - |
| 1778254171 | 20° C | 31% | 1008.7 hPa | 0 mm | - | 516 W/m² | - |
| 1778253868 | 20° C | 32% | 1008.6 hPa | 0 mm | - | 502 W/m² | - |
| 1778253564 | 20° C | 31% | 1008.7 hPa | 0 mm | - | 486 W/m² | - |
| 1778253261 | 20° C | 30% | 1008.8 hPa | 0 mm | - | 474 W/m² | - |
| 1778252957 | 19.44° C | 32% | 1008.7 hPa | 0 mm | - | 462 W/m² | - |
| 1778252654 | 19.44° C | 32% | 1008.9 hPa | 0 mm | - | 446 W/m² | - |
* Rain latest hour (hover to see other rain measurements)
** Current wind speed in m/s (hover to see current wind gust speed)